User: anonymous   Login
Location: Steinbach
(49.5170°N, 96.6830°W)
Time: 11:55:54
(UTC-06:00)
Language:

NOSS 3-4 (A) - Orbit

View from above orbital plane
View from above orbital plane
View from above satellite
View from above satellite

Ground track
Ground track

The orbit data is extracted from the following two-line orbital elements,

1 31701U 07027A   16339.79574884 0.00000000  00000-0  00000-0 0    05
2 31701  63.4039 218.9277 0172000  25.0351 334.9649 13.40719328    07
Epoch (UTC): 04 December 2016 19:05:52
Eccentricity: 0.0172000
inclination: 63.4039°
perigee height: 978 km
apogee height: 1235 km
right ascension of ascending node: 218.9277°
argument of perigee: 25.0351°
revolutions per day: 13.40719328
mean anomaly at epoch: 334.9649°
orbit number at epoch: 0

The dashed part of the orbit path shows where the satellite is in the earth's shadow,  

DLR